WBANNO,USDM_WEEK,LONGITUDE,LATITUDE,SMVWC_5_CM_MEAN,SMANOM_5_CM_MEAN,SMPERC_5_CM_30COUNTS,SMPERC_5_CM_70COUNTS,SMVWC_10_CM_MEAN,SMANOM_10_CM_MEAN,SMPERC_10_CM_30COUNTS,SMPERC_10_CM_70COUNTS,SMVWC_20_CM_MEAN,SMANOM_20_CM_MEAN,SMPERC_20_CM_30COUNTS,SMPERC_20_CM_70COUNTS,SMVWC_50_CM_MEAN,SMANOM_50_CM_MEAN,SMPERC_50_CM_30COUNTS,SMPERC_50_CM_70COUNTS,SMVWC_100_CM_MEAN,SMANOM_100_CM_MEAN,SMPERC_100_CM_30COUNTS,SMPERC_100_CM_70COUNTS,SMVWC_TOP_CM_MEAN,SMANOM_TOP_CM_MEAN,SMPERC_TOP_CM_30COUNTS,SMPERC_TOP_CM_70COUNTS,SMVWC_COLUMN_CM_MEAN,SMANOM_COLUMN_CM_MEAN,SMPERC_COLUMN_CM_30COUNTS,SMPERC_COLUMN_CM_70COUNTS
94995,20090602,-96.57,40.85,,,,,,,,,,,,,,,,,,,,,,,,,,,,
94995,20090603,-96.57,40.85,,,,,,,,,,,,,,,,,,,,,,,,,,,,
94995,20090604,-96.57,40.85,,,,,,,,,,,,,,,,,,,,,,,,,,,,
94995,20090605,-96.57,40.85,,,,,,,,,,,,,,,,,,,,,,,,,,,,
94995,20090606,-96.57,40.85,,,,,,,,,,,,,,,,,,,,,,,,,,,,
94995,20090607,-96.57,40.85,,,,,,,,,,,,,,,,,,,,,,,,,,,,
94995,20090608,-96.57,40.85,0.407,0.43,0,0.401,0.386,0.02,0,0.331,0.4,-0.25,0.669,0.325,0.442,0.08,0.204,0.325,,,,,0.396,0.29,0,0.331,,,,
94995,20090609,-96.57,40.85,0.42,0.53,0,0.518,0.399,0.15,0,0.452,0.414,-0.06,0.548,0.446,0.449,0.21,0.149,0.446,,,,,0.409,0.41,0,0.452,,,,
94995,20090610,-96.57,40.85,0.43,0.61,0,0.643,0.415,0.3,0,0.595,0.43,0.17,0.405,0.589,0.457,0.35,0.095,0.589,,,,,0.422,0.53,0,0.595,,,,
94995,20090611,-96.57,40.85,0.439,0.67,0,0.756,0.43,0.45,0,0.738,0.445,0.39,0.262,0.732,0.466,0.49,0.036,0.732,,,,,0.434,0.64,0,0.738,,,,
94995,20090612,-96.57,40.85,0.448,0.75,0,0.881,0.444,0.6,0,0.881,0.46,0.6,0.119,0.875,0.474,0.62,0.018,0.875,,,,,0.446,0.75,0,0.881,,,,
94995,20090613,-96.57,40.85,0.458,0.83,0,1,0.458,0.73,0,1,0.474,0.79,0,1,0.481,0.73,0,1,,,,,0.458,0.86,0,1,,,,
94995,20090614,-96.57,40.85,0.459,0.84,0,1,0.459,0.75,0,1,0.475,0.81,0,1,0.482,0.74,0,1,,,,,0.459,0.87,0,1,,,,
94995,20090615,-96.57,40.85,0.459,0.83,0,1,0.459,0.76,0,1,0.475,0.8,0,1,0.481,0.71,0,1,,,,,0.459,0.87,0,1,,,,
94995,20090616,-96.57,40.85,0.462,0.86,0,1,0.462,0.79,0,1,0.475,0.82,0,1,0.481,0.7,0,1,,,,,0.462,0.9,0,1,,,,
94995,20090617,-96.57,40.85,0.468,0.91,0,1,0.465,0.83,0,1,0.478,0.85,0,1,0.481,0.69,0,1,,,,,0.466,0.95,0,1,,,,
94995,20090618,-96.57,40.85,0.473,0.95,0,1,0.467,0.86,0,1,0.48,0.88,0,1,0.483,0.71,0,1,,,,,0.47,0.99,0,1,,,,
94995,20090619,-96.57,40.85,0.479,0.99,0,1,0.47,0.89,0,1,0.482,0.91,0,1,0.484,0.71,0,1,,,,,0.474,1.03,0,1,,,,
94995,20090620,-96.57,40.85,0.484,1.02,0,1,0.473,0.92,0,1,0.485,0.94,0,1,0.487,0.75,0,1,,,,,0.478,1.07,0,1,,,,
94995,20090621,-96.57,40.85,0.489,1.06,0,1,0.475,0.95,0,1,0.488,0.97,0,1,0.49,0.78,0,1,,,,,0.482,1.1,0,1,,,,
94995,20090622,-96.57,40.85,0.495,1.1,0,1,0.478,0.97,0,1,0.491,0.98,0,1,0.493,0.82,0,1,,,,,0.487,1.14,0,1,,,,
94995,20090623,-96.57,40.85,0.499,1.13,0,1,0.48,0.98,0,1,0.494,1,0,1,0.497,0.86,0,1,,,,,0.49,1.17,0,1,,,,
94995,20090624,-96.57,40.85,0.501,1.14,0,1,0.48,0.98,0,1,0.495,0.99,0,1,0.499,0.89,0,1,,,,,0.491,1.18,0,1,,,,
94995,20090625,-96.57,40.85,0.501,1.14,0,1,0.481,0.99,0,1,0.496,0.99,0,1,0.501,0.9,0,1,,,,,0.491,1.18,0,1,,,,
94995,20090626,-96.57,40.85,0.5,1.14,0,1,0.482,0.99,0,1,0.497,0.98,0,1,0.502,0.91,0,1,,,,,0.491,1.18,0,1,,,,
94995,20090627,-96.57,40.85,0.495,1.12,0,1,0.48,0.97,0,1,0.495,0.96,0,1,0.5,0.88,0,1,,,,,0.487,1.14,0,1,,,,
94995,20090628,-96.57,40.85,0.487,1.07,0,1,0.478,0.95,0,1,0.493,0.94,0,1,0.499,0.85,0,1,,,,,0.482,1.1,0,1,,,,
94995,20090629,-96.57,40.85,0.474,0.98,0,0.988,0.474,0.92,0,1,0.491,0.91,0,1,0.498,0.82,0,1,,,,,0.474,1.03,0,1,,,,
94995,20090630,-96.57,40.85,0.456,0.86,0,0.881,0.469,0.87,0,1,0.488,0.88,0,1,0.494,0.78,0,1,,,,,0.462,0.93,0,0.976,,,,
94995,20090701,-96.57,40.85,0.435,0.72,0,0.738,0.463,0.81,0,1,0.484,0.86,0,1,0.492,0.75,0,1,,,,,0.449,0.82,0,0.875,,,,
94995,20090702,-96.57,40.85,0.414,0.57,0,0.595,0.456,0.75,0,0.988,0.481,0.84,0,1,0.49,0.72,0,1,,,,,0.435,0.7,0,0.732,,,,
94995,20090703,-96.57,40.85,0.39,0.41,0,0.452,0.447,0.68,0,0.893,0.478,0.81,0,1,0.489,0.7,0,1,,,,,0.418,0.57,0,0.589,,,,
94995,20090704,-96.57,40.85,0.374,0.3,0,0.375,0.442,0.64,0,0.815,0.476,0.81,0,1,0.49,0.7,0,1,,,,,0.408,0.49,0,0.512,,,,
94995,20090705,-96.57,40.85,0.37,0.28,0,0.375,0.442,0.63,0,0.815,0.475,0.81,0,1,0.491,0.71,0,1,,,,,0.406,0.48,0,0.512,,,,
94995,20090706,-96.57,40.85,0.369,0.29,0,0.387,0.441,0.63,0,0.815,0.475,0.81,0,1,0.491,0.7,0,1,,,,,0.405,0.48,0,0.512,,,,
94995,20090707,-96.57,40.85,0.37,0.31,0,0.494,0.441,0.62,0,0.815,0.475,0.81,0,1,0.49,0.69,0,1,,,,,0.405,0.49,0,0.536,,,,
94995,20090708,-96.57,40.85,0.372,0.34,0,0.601,0.441,0.63,0,0.815,0.474,0.82,0,1,0.49,0.69,0,1,,,,,0.406,0.51,0,0.637,,,,
94995,20090709,-96.57,40.85,0.375,0.38,0,0.601,0.441,0.64,0,0.827,0.475,0.82,0,1,0.49,0.68,0,1,,,,,0.408,0.54,0,0.756,,,,
94995,20090710,-96.57,40.85,0.379,0.43,0,0.601,0.442,0.65,0,0.923,0.476,0.83,0,1,0.49,0.68,0,1,,,,,0.41,0.57,0,0.78,,,,
94995,20090711,-96.57,40.85,0.375,0.43,0,0.536,0.438,0.64,0,1,0.475,0.83,0,1,0.487,0.66,0,1,,,,,0.406,0.56,0,0.714,,,,
94995,20090712,-96.57,40.85,0.361,0.35,0,0.393,0.429,0.59,0,0.958,0.472,0.81,0,1,0.485,0.64,0,1,,,,,0.395,0.49,0,0.571,,,,
94995,20090713,-96.57,40.85,0.346,0.27,0,0.25,0.42,0.54,0,0.827,0.469,0.8,0,1,0.484,0.63,0,1,,,,,0.383,0.42,0,0.429,,,,
94995,20090714,-96.57,40.85,0.331,0.19,0,0.107,0.41,0.49,0,0.696,0.466,0.78,0,1,0.483,0.64,0,1,,,,,0.37,0.35,0,0.286,,,,
94995,20090715,-96.57,40.85,0.318,0.11,0,0,0.402,0.46,0,0.685,0.462,0.77,0,1,0.483,0.64,0,1,,,,,0.36,0.29,0,0.143,,,,
94995,20090716,-96.57,40.85,0.305,0.05,0,0,0.394,0.43,0,0.542,0.457,0.75,0,1,0.482,0.65,0,1,,,,,0.349,0.23,0,0.024,,,,
94995,20090717,-96.57,40.85,0.294,-0.01,0,0,0.388,0.42,0,0.518,0.452,0.73,0,1,0.481,0.65,0,1,,,,,0.341,0.19,0,0,,,,
94995,20090718,-96.57,40.85,0.285,-0.06,0,0,0.382,0.41,0,0.429,0.446,0.7,0,1,0.48,0.65,0,1,,,,,0.333,0.15,0,0,,,,
94995,20090719,-96.57,40.85,0.277,-0.1,0,0,0.375,0.39,0,0.327,0.44,0.68,0,1,0.479,0.66,0,1,,,,,0.326,0.11,0,0,,,,
94995,20090720,-96.57,40.85,0.271,-0.13,0,0,0.37,0.37,0,0.345,0.433,0.65,0,1,0.477,0.66,0,1,,,,,0.32,0.09,0,0,,,,
94995,20090721,-96.57,40.85,0.27,-0.11,0,0,0.373,0.43,0,0.476,0.427,0.63,0,1,0.476,0.67,0,1,,,,,0.322,0.12,0,0.071,,,,
94995,20090722,-96.57,40.85,0.272,-0.08,0,0,0.375,0.47,0,0.488,0.421,0.61,0,1,0.474,0.67,0,1,,,,,0.324,0.16,0,0.202,,,,
94995,20090723,-96.57,40.85,0.275,-0.03,0,0,0.378,0.52,0,0.631,0.417,0.59,0,1,0.473,0.68,0,1,,,,,0.326,0.21,0,0.268,,,,
94995,20090724,-96.57,40.85,0.278,0.01,0,0,0.376,0.52,0,0.655,0.412,0.57,0,1,0.471,0.68,0,1,,,,,0.327,0.24,0,0.268,,,,
94995,20090725,-96.57,40.85,0.28,0.04,0,0,0.375,0.53,0,0.72,0.407,0.55,0,1,0.47,0.69,0,1,,,,,0.327,0.26,0,0.268,,,,
94995,20090726,-96.57,40.85,0.281,0.07,0,0,0.373,0.52,0,0.72,0.402,0.52,0,0.982,0.468,0.7,0,1,,,,,0.327,0.28,0,0.268,,,,
94995,20090727,-96.57,40.85,0.281,0.09,0,0,0.369,0.5,0,0.69,0.396,0.49,0,0.839,0.466,0.71,0,1,,,,,0.325,0.28,0,0.268,,,,
94995,20090728,-96.57,40.85,0.276,0.07,0,0,0.357,0.4,0,0.548,0.389,0.44,0,0.696,0.465,0.72,0,1,,,,,0.316,0.22,0,0.196,,,,
94995,20090729,-96.57,40.85,0.268,0.03,0,0,0.344,0.29,0,0.405,0.382,0.4,0,0.554,0.463,0.72,0,1,,,,,0.306,0.15,0,0.065,,,,
94995,20090730,-96.57,40.85,0.261,-0.01,0,0,0.332,0.19,0,0.262,0.375,0.35,0,0.411,0.46,0.72,0,1,,,,,0.296,0.08,0,0,,,,
94995,20090731,-96.57,40.85,0.254,-0.04,0,0,0.322,0.1,0,0.119,0.368,0.3,0,0.268,0.457,0.71,0,1,,,,,0.288,0.02,0,0,,,,
94995,20090801,-96.57,40.85,0.251,-0.05,0,0.036,0.317,0.07,0,0.042,0.361,0.26,0,0.125,0.453,0.7,0,1,,,,,0.284,0,0,0.042,,,,
94995,20090802,-96.57,40.85,0.253,-0.01,0,0.048,0.321,0.12,0,0.185,0.356,0.22,0,0,0.45,0.68,0,1,,,,,0.287,0.04,0,0.167,,,,
94995,20090803,-96.57,40.85,0.255,0.02,0,0.048,0.324,0.17,0,0.304,0.352,0.2,0,0,0.446,0.66,0,1,,,,,0.29,0.07,0,0.167,,,,
94995,20090804,-96.57,40.85,0.256,0.05,0,0.048,0.326,0.19,0,0.304,0.349,0.17,0,0,0.441,0.63,0,1,,,,,0.291,0.09,0,0.167,,,,
94995,20090805,-96.57,40.85,0.257,0.07,0,0.048,0.326,0.19,0,0.304,0.346,0.15,0,0,0.437,0.6,0,1,,,,,0.291,0.1,0,0.167,,,,
94995,20090806,-96.57,40.85,0.257,0.08,0,0.048,0.324,0.18,0,0.304,0.343,0.13,0,0,0.433,0.58,0,1,,,,,0.29,0.09,0,0.167,,,,
94995,20090807,-96.57,40.85,0.257,0.09,0,0.048,0.322,0.16,0,0.304,0.34,0.1,0,0,0.429,0.56,0,1,,,,,0.289,0.09,0,0.167,,,,
94995,20090808,-96.57,40.85,0.254,0.08,0,0.012,0.315,0.1,0,0.262,0.338,0.08,0,0,0.425,0.53,0,1,,,,,0.285,0.05,0,0.125,,,,
94995,20090809,-96.57,40.85,0.247,0.02,0,0,0.302,-0.04,0,0.119,0.335,0.05,0,0,0.421,0.51,0,1,,,,,0.274,-0.05,0,0,,,,
94995,20090810,-96.57,40.85,0.24,-0.03,0,0,0.296,-0.1,0,0,0.332,0.02,0,0,0.417,0.48,0,1,,,,,0.268,-0.11,0,0,,,,
94995,20090811,-96.57,40.85,0.235,-0.07,0,0,0.294,-0.13,0,0,0.329,-0.01,0,0,0.414,0.46,0,1,,,,,0.264,-0.14,0,0,,,,
94995,20090812,-96.57,40.85,0.231,-0.1,0,0,0.29,-0.16,0,0,0.327,-0.04,0,0,0.41,0.44,0,1,,,,,0.261,-0.18,0,0,,,,
94995,20090813,-96.57,40.85,0.228,-0.12,0,0,0.287,-0.19,0,0,0.324,-0.07,0,0,0.406,0.41,0,1,,,,,0.258,-0.2,0,0,,,,
94995,20090814,-96.57,40.85,0.226,-0.14,0,0,0.284,-0.22,0,0,0.322,-0.1,0,0,0.402,0.38,0,0.964,,,,,0.255,-0.23,0.018,0,,,,
94995,20090815,-96.57,40.85,0.223,-0.17,0,0,0.282,-0.23,0.018,0.006,0.319,-0.13,0,0,0.396,0.34,0,0.839,,,,,0.253,-0.24,0.101,0,,,,
94995,20090816,-96.57,40.85,0.239,-0.07,0,0.048,0.302,-0.07,0.018,0.149,0.327,-0.08,0,0.024,0.398,0.35,0,0.839,,,,,0.271,-0.11,0.101,0.143,,,,
94995,20090817,-96.57,40.85,0.26,0.06,0,0.19,0.32,0.06,0.018,0.292,0.338,0,0,0.167,0.405,0.38,0,0.839,,,,,0.29,0.03,0.101,0.286,,,,
94995,20090818,-96.57,40.85,0.279,0.17,0,0.333,0.336,0.17,0.018,0.435,0.349,0.07,0,0.31,0.412,0.42,0,0.839,,,,,0.307,0.15,0.101,0.429,,,,
94995,20090819,-96.57,40.85,0.296,0.28,0,0.476,0.353,0.3,0.018,0.577,0.36,0.14,0,0.44,0.419,0.45,0,0.839,,,,,0.325,0.28,0.101,0.571,,,,
94995,20090820,-96.57,40.85,0.314,0.38,0,0.613,0.374,0.44,0.018,0.72,0.371,0.21,0,0.53,0.426,0.48,0,0.839,,,,,0.344,0.41,0.101,0.714,,,,
94995,20090821,-96.57,40.85,0.332,0.49,0,0.75,0.393,0.58,0.018,0.863,0.382,0.27,0,0.542,0.434,0.51,0,0.875,,,,,0.362,0.55,0.083,0.857,,,,
94995,20090822,-96.57,40.85,0.349,0.59,0,0.875,0.411,0.7,0,1,0.392,0.33,0,0.542,0.443,0.55,0,1,,,,,0.38,0.67,0,1,,,,
94995,20090823,-96.57,40.85,0.348,0.58,0,0.935,0.405,0.63,0,0.982,0.392,0.3,0,0.518,0.444,0.55,0,1,,,,,0.377,0.64,0,1,,,,
94995,20090824,-96.57,40.85,0.341,0.52,0,0.798,0.395,0.54,0,0.839,0.388,0.25,0,0.375,0.441,0.51,0,1,,,,,0.368,0.57,0,0.887,,,,
94995,20090825,-96.57,40.85,0.336,0.48,0,0.655,0.386,0.46,0,0.696,0.384,0.19,0,0.232,0.437,0.47,0,1,,,,,0.361,0.51,0,0.744,,,,
94995,20090826,-96.57,40.85,0.329,0.42,0,0.512,0.378,0.38,0,0.554,0.381,0.14,0,0.101,0.434,0.44,0,1,,,,,0.353,0.44,0,0.601,,,,
94995,20090827,-96.57,40.85,0.332,0.42,0,0.482,0.376,0.36,0,0.542,0.377,0.09,0,0.012,0.431,0.4,0,1,,,,,0.354,0.42,0,0.583,,,,
94995,20090828,-96.57,40.85,0.335,0.4,0,0.458,0.376,0.34,0,0.5,0.374,0.04,0,0,0.428,0.37,0,1,,,,,0.356,0.41,0,0.583,,,,
94995,20090829,-96.57,40.85,0.338,0.38,0,0.333,0.376,0.31,0,0.357,0.371,0,0,0,0.426,0.34,0,0.976,,,,,0.357,0.39,0,0.488,,,,
94995,20090830,-96.57,40.85,0.34,0.35,0,0.226,0.375,0.28,0,0.232,0.368,-0.04,0,0,0.424,0.31,0,0.893,,,,,0.357,0.36,0,0.345,,,,
94995,20090831,-96.57,40.85,0.341,0.31,0,0.22,0.373,0.25,0,0.232,0.366,-0.08,0,0,0.421,0.28,0,0.756,,,,,0.357,0.33,0,0.315,,,,
94995,20090901,-96.57,40.85,0.342,0.28,0,0.22,0.371,0.22,0,0.232,0.363,-0.12,0,0,0.419,0.26,0,0.613,,,,,0.357,0.29,0,0.315,,,,
94995,20090902,-96.57,40.85,0.343,0.25,0,0.22,0.37,0.19,0,0.232,0.36,-0.16,0,0,0.416,0.23,0,0.47,,,,,0.356,0.26,0,0.315,,,,
94995,20090903,-96.57,40.85,0.335,0.17,0,0.113,0.358,0.09,0,0.101,0.357,-0.2,0,0,0.413,0.2,0,0.327,,,,,0.347,0.17,0,0.19,,,,
94995,20090904,-96.57,40.85,0.339,0.18,0,0.113,0.363,0.11,0,0.119,0.361,-0.17,0,0,0.414,0.19,0,0.268,,,,,0.351,0.18,0,0.167,,,,
94995,20090905,-96.57,40.85,0.345,0.2,0,0.256,0.369,0.14,0,0.262,0.366,-0.14,0,0,0.414,0.18,0,0.161,,,,,0.357,0.21,0,0.262,,,,
94995,20090906,-96.57,40.85,0.351,0.22,0,0.393,0.376,0.17,0,0.405,0.371,-0.1,0,0,0.415,0.17,0,0.107,,,,,0.363,0.24,0,0.405,,,,
94995,20090907,-96.57,40.85,0.357,0.25,0,0.446,0.383,0.21,0,0.458,0.376,-0.06,0,0,0.415,0.17,0,0.107,,,,,0.37,0.27,0,0.512,,,,
94995,20090908,-96.57,40.85,0.363,0.28,0,0.446,0.39,0.26,0,0.458,0.381,-0.01,0,0,0.416,0.17,0,0.113,,,,,0.377,0.31,0,0.518,,,,
94995,20090909,-96.57,40.85,0.369,0.32,0,0.446,0.398,0.3,0,0.458,0.387,0.03,0,0,0.417,0.17,0,0.113,,,,,0.383,0.35,0,0.518,,,,
94995,20090910,-96.57,40.85,0.374,0.35,0,0.446,0.405,0.35,0,0.458,0.392,0.08,0,0,0.418,0.17,0,0.113,,,,,0.39,0.38,0,0.518,,,,
94995,20090911,-96.57,40.85,0.365,0.29,0,0.333,0.397,0.29,0,0.339,0.391,0.06,0,0,0.417,0.15,0,0.03,,,,,0.381,0.32,0,0.399,,,,
94995,20090912,-96.57,40.85,0.354,0.22,0,0.19,0.387,0.22,0,0.196,0.388,0.03,0,0,0.414,0.14,0,0.018,,,,,0.37,0.25,0,0.256,,,,
94995,20090913,-96.57,40.85,0.344,0.16,0,0.054,0.378,0.15,0,0.054,0.386,0,0,0,0.412,0.12,0,0.012,,,,,0.361,0.18,0,0.113,,,,
94995,20090914,-96.57,40.85,0.336,0.1,0,0,0.37,0.09,0,0,0.384,-0.03,0,0,0.411,0.11,0,0.006,,,,,0.353,0.12,0,0.006,,,,
94995,20090915,-96.57,40.85,0.328,0.05,0,0,0.363,0.03,0,0,0.381,-0.07,0,0,0.41,0.1,0,0,,,,,0.345,0.06,0,0,,,,
94995,20090916,-96.57,40.85,0.32,0,0,0,0.356,-0.04,0,0,0.378,-0.12,0,0,0.408,0.09,0,0,,,,,0.338,0,0,0,,,,
94995,20090917,-96.57,40.85,0.314,-0.04,0,0,0.35,-0.1,0,0,0.375,-0.17,0,0,0.407,0.07,0,0,,,,,0.332,-0.06,0,0,,,,
94995,20090918,-96.57,40.85,0.307,-0.1,0,0,0.343,-0.17,0,0,0.372,-0.21,0,0,0.405,0.06,0,0,,,,,0.325,-0.12,0,0,,,,
94995,20090919,-96.57,40.85,0.3,-0.15,0,0,0.337,-0.24,0.125,0,0.369,-0.27,0.048,0,0.403,0.03,0,0,,,,,0.318,-0.18,0,0,,,,
94995,20090920,-96.57,40.85,0.292,-0.21,0,0,0.33,-0.31,0.268,0,0.366,-0.33,0.185,0,0.401,0.01,0,0,,,,,0.311,-0.24,0.03,0,,,,
94995,20090921,-96.57,40.85,0.285,-0.27,0.095,0,0.323,-0.38,0.411,0,0.362,-0.39,0.327,0,0.399,-0.02,0,0,,,,,0.304,-0.31,0.167,0,,,,
94995,20090922,-96.57,40.85,0.278,-0.33,0.238,0,0.322,-0.41,0.429,0,0.359,-0.44,0.47,0,0.397,-0.04,0,0,,,,,0.3,-0.35,0.226,0,,,,
94995,20090923,-96.57,40.85,0.272,-0.39,0.381,0,0.32,-0.45,0.571,0,0.356,-0.5,0.613,0,0.395,-0.07,0,0,,,,,0.296,-0.4,0.369,0,,,,
94995,20090924,-96.57,40.85,0.267,-0.44,0.524,0,0.318,-0.5,0.714,0,0.353,-0.55,0.756,0,0.393,-0.1,0,0,,,,,0.292,-0.45,0.512,0,,,,
94995,20090925,-96.57,40.85,0.263,-0.48,0.667,0,0.315,-0.55,0.857,0,0.35,-0.61,0.899,0,0.39,-0.12,0,0,,,,,0.289,-0.49,0.655,0,,,,
94995,20090926,-96.57,40.85,0.261,-0.51,0.81,0,0.313,-0.6,0.875,0,0.348,-0.65,0.994,0,0.388,-0.15,0,0,,,,,0.287,-0.53,0.798,0,,,,
94995,20090927,-96.57,40.85,0.259,-0.52,0.952,0,0.312,-0.65,0.875,0,0.346,-0.68,1,0,0.386,-0.17,0,0,,,,,0.285,-0.56,0.911,0,,,,
94995,20090928,-96.57,40.85,0.258,-0.53,1,0,0.31,-0.7,0.875,0,0.345,-0.71,1,0,0.385,-0.19,0,0,,,,,0.284,-0.58,0.917,0,,,,
94995,20090929,-96.57,40.85,0.257,-0.54,1,0,0.303,-0.8,1,0,0.343,-0.74,1,0,0.383,-0.21,0,0,,,,,0.28,-0.62,1,0,,,,
94995,20090930,-96.57,40.85,0.256,-0.55,1,0,0.297,-0.89,1,0,0.341,-0.76,1,0,0.381,-0.24,0,0,,,,,0.277,-0.66,1,0,,,,
94995,20091001,-96.57,40.85,0.254,-0.56,1,0,0.293,-0.96,1,0,0.34,-0.77,1,0,0.379,-0.26,0,0,,,,,0.273,-0.69,1,0,,,,
94995,20091002,-96.57,40.85,0.252,-0.57,1,0,0.289,-1.02,1,0,0.339,-0.78,1,0,0.377,-0.28,0,0,,,,,0.27,-0.72,1,0,,,,
94995,20091003,-96.57,40.85,0.249,-0.59,1,0,0.285,-1.07,1,0,0.337,-0.79,1,0,0.376,-0.3,0,0,,,,,0.267,-0.75,1,0,,,,
94995,20091004,-96.57,40.85,0.246,-0.61,1,0,0.282,-1.12,1,0,0.335,-0.81,1,0,0.374,-0.33,0,0,,,,,0.264,-0.77,1,0,,,,
94995,20091005,-96.57,40.85,0.243,-0.63,1,0,0.278,-1.17,1,0,0.333,-0.82,1,0,0.372,-0.37,0.018,0,,,,,0.261,-0.8,1,0,,,,
94995,20091006,-96.57,40.85,0.243,-0.63,0.958,0,0.282,-1.14,0.952,0,0.332,-0.83,1,0,0.37,-0.42,0.065,0,,,,,0.263,-0.78,0.958,0,,,,
94995,20091007,-96.57,40.85,0.253,-0.56,0.815,0,0.293,-1.01,0.81,0,0.332,-0.8,0.994,0,0.369,-0.47,0.161,0,,,,,0.273,-0.69,0.815,0,,,,
94995,20091008,-96.57,40.85,0.261,-0.49,0.673,0,0.304,-0.9,0.667,0,0.333,-0.79,0.994,0,0.368,-0.52,0.256,0,,,,,0.283,-0.61,0.673,0,,,,
94995,20091009,-96.57,40.85,0.271,-0.42,0.53,0,0.314,-0.78,0.524,0,0.333,-0.77,0.994,0,0.367,-0.56,0.387,0,,,,,0.292,-0.53,0.53,0,,,,
94995,20091010,-96.57,40.85,0.282,-0.33,0.387,0,0.324,-0.67,0.458,0,0.334,-0.74,0.97,0,0.366,-0.6,0.512,0,,,,,0.303,-0.45,0.387,0,,,,
94995,20091011,-96.57,40.85,0.298,-0.22,0.244,0,0.338,-0.51,0.357,0,0.334,-0.72,0.929,0,0.365,-0.63,0.637,0,,,,,0.318,-0.32,0.244,0,,,,
94995,20091012,-96.57,40.85,0.314,-0.1,0.101,0,0.353,-0.34,0.214,0,0.336,-0.68,0.875,0,0.364,-0.66,0.762,0,,,,,0.333,-0.2,0.101,0,,,,
94995,20091013,-96.57,40.85,0.329,0,0,0,0.362,-0.23,0.119,0,0.336,-0.66,0.798,0,0.363,-0.69,0.857,0,,,,,0.345,-0.1,0,0,,,,
94995,20091014,-96.57,40.85,0.337,0.06,0,0.054,0.367,-0.17,0.119,0.071,0.338,-0.63,0.696,0,0.363,-0.7,0.899,0,,,,,0.352,-0.05,0,0.071,,,,
94995,20091015,-96.57,40.85,0.349,0.14,0,0.143,0.378,-0.05,0.119,0.214,0.342,-0.57,0.554,0,0.362,-0.72,0.935,0,,,,,0.364,0.04,0,0.202,,,,
94995,20091016,-96.57,40.85,0.36,0.22,0,0.274,0.389,0.07,0.119,0.357,0.346,-0.52,0.417,0,0.361,-0.75,0.946,0,,,,,0.375,0.13,0,0.339,,,,
94995,20091017,-96.57,40.85,0.37,0.29,0,0.351,0.4,0.18,0.042,0.5,0.35,-0.46,0.298,0,0.361,-0.76,0.964,0,,,,,0.385,0.21,0,0.411,,,,
94995,20091018,-96.57,40.85,0.373,0.32,0,0.375,0.406,0.25,0,0.601,0.353,-0.4,0.196,0,0.36,-0.79,0.982,0,,,,,0.39,0.25,0,0.44,,,,
94995,20091019,-96.57,40.85,0.377,0.35,0,0.44,0.412,0.31,0,0.673,0.357,-0.35,0.107,0,0.359,-0.8,0.982,0,,,,,0.394,0.28,0,0.452,,,,
94995,20091020,-96.57,40.85,0.379,0.37,0,0.518,0.417,0.37,0,0.78,0.362,-0.29,0.042,0,0.36,-0.81,0.982,0,,,,,0.398,0.32,0,0.542,,,,
94995,20091021,-96.57,40.85,0.379,0.39,0,0.53,0.419,0.39,0,0.798,0.365,-0.25,0.006,0,0.359,-0.82,0.988,0,,,,,0.399,0.34,0,0.548,,,,
94995,20091022,-96.57,40.85,0.383,0.42,0,0.583,0.422,0.42,0,0.798,0.369,-0.2,0.006,0.054,0.361,-0.8,0.935,0,,,,,0.402,0.37,0,0.56,,,,
94995,20091023,-96.57,40.85,0.389,0.47,0,0.595,0.427,0.47,0,0.798,0.381,-0.06,0,0.196,0.372,-0.64,0.792,0.077,,,,,0.408,0.42,0,0.565,,,,
94995,20091024,-96.57,40.85,0.393,0.5,0,0.661,0.429,0.49,0,0.798,0.392,0.07,0,0.339,0.385,-0.46,0.649,0.22,,,,,0.411,0.44,0,0.637,,,,
94995,20091025,-96.57,40.85,0.396,0.53,0,0.78,0.431,0.5,0,0.839,0.401,0.17,0,0.482,0.397,-0.28,0.506,0.363,,,,,0.413,0.47,0,0.75,,,,
94995,20091026,-96.57,40.85,0.399,0.55,0,0.857,0.432,0.52,0,0.911,0.409,0.26,0,0.625,0.409,-0.11,0.363,0.5,,,,,0.416,0.49,0,0.881,,,,
94995,20091027,-96.57,40.85,0.401,0.57,0,0.922,0.433,0.52,0,0.934,0.417,0.34,0,0.765,0.421,0.05,0.223,0.639,,,,,0.417,0.5,0,0.934,,,,
94995,20091028,-96.57,40.85,0.404,0.59,0,1,0.433,0.52,0,0.976,0.424,0.41,0,0.91,0.432,0.22,0.078,0.783,,,,,0.418,0.51,0,1,,,,
94995,20091029,-96.57,40.85,0.4,0.57,0,1,0.429,0.47,0,0.976,0.428,0.45,0,1,0.443,0.38,0,0.928,,,,,0.415,0.49,0,1,,,,
94995,20091030,-96.57,40.85,0.401,0.58,0,1,0.429,0.47,0,0.976,0.429,0.45,0,1,0.448,0.46,0,0.994,,,,,0.415,0.5,0,1,,,,
94995,20091031,-96.57,40.85,0.403,0.6,0,1,0.43,0.48,0,0.976,0.429,0.45,0,1,0.45,0.49,0,0.994,,,,,0.416,0.51,0,1,,,,
94995,20091101,-96.57,40.85,0.403,0.61,0,1,0.43,0.49,0,0.976,0.43,0.45,0,1,0.452,0.53,0,0.994,,,,,0.417,0.52,0,1,,,,
94995,20091102,-96.57,40.85,0.404,0.62,0,1,0.431,0.5,0,0.976,0.431,0.46,0,1,0.454,0.57,0,1,,,,,0.417,0.53,0,1,,,,
94995,20091103,-96.57,40.85,0.404,0.64,0,1,0.431,0.51,0,0.988,0.431,0.46,0,1,0.456,0.6,0,1,,,,,0.418,0.55,0,1,,,,
94995,20091104,-96.57,40.85,0.404,0.66,0,1,0.431,0.53,0,1,0.431,0.45,0,0.97,0.458,0.63,0,1,,,,,0.418,0.56,0,1,,,,
94995,20091105,-96.57,40.85,0.403,0.68,0,1,0.43,0.53,0,1,0.43,0.44,0,0.917,0.459,0.65,0,1,,,,,0.417,0.57,0,1,,,,
94995,20091106,-96.57,40.85,0.395,0.66,0,1,0.424,0.49,0,1,0.425,0.38,0,0.851,0.455,0.6,0,1,,,,,0.41,0.53,0,1,,,,
94995,20091107,-96.57,40.85,0.391,0.66,0,1,0.421,0.47,0,1,0.422,0.36,0,0.851,0.453,0.58,0,1,,,,,0.406,0.53,0,1,,,,
94995,20091108,-96.57,40.85,0.388,0.67,0,1,0.42,0.47,0,1,0.42,0.35,0,0.845,0.452,0.58,0,1,,,,,0.404,0.54,0,1,,,,
94995,20091109,-96.57,40.85,0.385,0.68,0,1,0.418,0.47,0,1,0.419,0.34,0,0.845,0.451,0.57,0,1,,,,,0.402,0.55,0,1,,,,
94995,20091110,-96.57,40.85,0.382,0.7,0,1,0.418,0.47,0,1,0.419,0.34,0,0.827,0.45,0.57,0,1,,,,,0.4,0.57,0,1,,,,
94995,20091111,-96.57,40.85,0.38,0.71,0,1,0.417,0.47,0,1,0.418,0.34,0,0.827,0.45,0.57,0,1,,,,,0.399,0.59,0,1,,,,
94995,20091112,-96.57,40.85,0.377,0.71,0,1,0.417,0.47,0,1,0.418,0.34,0,0.845,0.45,0.58,0,1,,,,,0.397,0.6,0,1,,,,
94995,20091113,-96.57,40.85,0.374,0.71,0,1,0.417,0.47,0,1,0.418,0.35,0,0.893,0.45,0.59,0,1,,,,,0.396,0.62,0,1,,,,
94995,20091114,-96.57,40.85,0.372,0.69,0,1,0.416,0.47,0,1,0.418,0.35,0,0.887,0.45,0.6,0,1,,,,,0.394,0.62,0,1,,,,
94995,20091115,-96.57,40.85,0.369,0.66,0,1,0.415,0.47,0,1,0.418,0.35,0,0.881,0.45,0.61,0,1,,,,,0.392,0.61,0,1,,,,
94995,20091116,-96.57,40.85,0.366,0.63,0,1,0.414,0.45,0,1,0.417,0.34,0,0.827,0.45,0.62,0,1,,,,,0.39,0.59,0,1,,,,
94995,20091117,-96.57,40.85,0.362,0.58,0,1,0.413,0.45,0,1,0.417,0.33,0,0.756,0.449,0.62,0,1,,,,,0.388,0.56,0,1,,,,
94995,20091118,-96.57,40.85,0.36,0.54,0,0.988,0.411,0.44,0,1,0.416,0.32,0,0.655,0.449,0.63,0,1,,,,,0.386,0.54,0,1,,,,
94995,20091119,-96.57,40.85,0.359,0.51,0,0.952,0.41,0.44,0,1,0.415,0.3,0,0.548,0.448,0.62,0,1,,,,,0.384,0.51,0,1,,,,
94995,20091120,-96.57,40.85,0.357,0.47,0,0.893,0.408,0.43,0,1,0.414,0.29,0,0.429,0.447,0.62,0,1,,,,,0.383,0.48,0,0.97,,,,
94995,20091121,-96.57,40.85,0.355,0.43,0,0.756,0.406,0.41,0,1,0.413,0.27,0,0.304,0.446,0.62,0,1,,,,,0.381,0.45,0,0.851,,,,
94995,20091122,-96.57,40.85,0.354,0.4,0,0.619,0.405,0.4,0,1,0.411,0.24,0,0.179,0.445,0.62,0,1,,,,,0.379,0.42,0,0.738,,,,
94995,20091123,-96.57,40.85,0.354,0.38,0,0.506,0.404,0.4,0,1,0.411,0.24,0,0.167,0.444,0.62,0,1,,,,,0.379,0.41,0,0.673,,,,
94995,20091124,-96.57,40.85,0.354,0.37,0,0.363,0.404,0.4,0,0.994,0.411,0.25,0,0.196,0.443,0.62,0,1,,,,,0.379,0.39,0,0.56,,,,
94995,20091125,-96.57,40.85,0.353,0.35,0,0.232,0.403,0.39,0,0.958,0.41,0.25,0,0.274,0.443,0.64,0,1,,,,,0.378,0.37,0,0.417,,,,
94995,20091126,-96.57,40.85,0.351,0.33,0,0.125,0.402,0.37,0,0.899,0.41,0.26,0,0.327,0.443,0.65,0,1,,,,,0.376,0.36,0,0.274,,,,
94995,20091127,-96.57,40.85,0.349,0.31,0,0.042,0.401,0.35,0,0.78,0.409,0.25,0,0.363,0.443,0.66,0,0.994,,,,,0.375,0.34,0,0.161,,,,
94995,20091128,-96.57,40.85,0.347,0.29,0,0.042,0.4,0.34,0,0.673,0.409,0.25,0,0.399,0.442,0.66,0,0.994,,,,,0.374,0.32,0,0.137,,,,
94995,20091129,-96.57,40.85,0.346,0.27,0,0.036,0.399,0.32,0,0.56,0.409,0.26,0,0.458,0.441,0.66,0,0.988,,,,,0.372,0.31,0,0.107,,,,
94995,20091130,-96.57,40.85,0.344,0.25,0,0.006,0.398,0.3,0,0.435,0.408,0.25,0,0.446,0.44,0.66,0,0.982,,,,,0.371,0.28,0,0.03,,,,
94995,20091201,-96.57,40.85,0.341,0.22,0,0.006,0.396,0.27,0,0.304,0.407,0.24,0,0.405,0.44,0.66,0,0.982,,,,,0.369,0.26,0,0,,,,
94995,20091202,-96.57,40.85,0.34,0.19,0,0.006,0.395,0.26,0,0.202,0.407,0.23,0,0.381,0.439,0.65,0,0.982,,,,,0.368,0.24,0,0,,,,
94995,20091203,-96.57,40.85,0.338,0.16,0,0.006,0.394,0.24,0,0.119,0.406,0.22,0,0.363,0.438,0.64,0,0.982,,,,,0.366,0.21,0,0,,,,
94995,20091204,-96.57,40.85,0.336,0.13,0,0.006,0.393,0.21,0,0.095,0.405,0.2,0,0.321,0.438,0.64,0,0.988,,,,,0.365,0.18,0,0,,,,
94995,20091205,-96.57,40.85,0.335,0.11,0,0,0.391,0.18,0,0.06,0.404,0.17,0,0.274,0.437,0.63,0,0.982,,,,,0.364,0.17,0,0,,,,
94995,20091206,-96.57,40.85,,,,,0.39,0.16,0,0.03,0.403,0.13,0,0.208,0.436,0.62,0,0.97,,,,,,,,,,,,
94995,20091207,-96.57,40.85,,,,,0.389,0.14,0,0.012,0.401,0.09,0,0.143,0.435,0.61,0,0.97,,,,,,,,,,,,
94995,20091208,-96.57,40.85,,,,,0.388,0.12,0,0.006,0.4,0.06,0,0.102,0.434,0.58,0,0.94,,,,,,,,,,,,
94995,20091209,-96.57,40.85,,,,,0.386,0.08,0,0,0.399,0.01,0,0.036,0.432,0.56,0,0.922,,,,,,,,,,,,
94995,20091210,-96.57,40.85,,,,,0.385,0.06,0,0,0.398,-0.02,0,0,0.431,0.54,0,0.898,,,,,,,,,,,,
94995,20091211,-96.57,40.85,,,,,0.385,0.05,0,0,0.397,-0.03,0,0,0.43,0.53,0,0.892,,,,,,,,,,,,
94995,20091212,-96.57,40.85,,,,,0.385,0.04,0,0,0.397,-0.05,0,0,0.429,0.51,0,0.886,,,,,,,,,,,,
94995,20091213,-96.57,40.85,,,,,0.384,0.02,0,0,0.397,-0.05,0,0,0.429,0.51,0,0.898,,,,,,,,,,,,
94995,20091214,-96.57,40.85,0.315,-0.22,0,0,0.384,0,0,0,0.397,-0.06,0,0,0.429,0.5,0,0.862,,,,,0.35,-0.16,0,0,,,,